Location: Unspecified
(0.0000°N, 0.0000°E)
Time: 10:31:53
(UTC+00:00)

Vanguard 2 Rocket - Pass Details

Date: 10 October 2022
Orbit: 555 x 3321 km, 32.9° (Epoch: 29 November)

Event Time Altitude Azimuth Distance (km) Brightness Sun altitude
Rises 19:48:24 0° 267° (W) 7,052 12.6 -30.1°
Reaches altitude 10° 19:54:04 10° 277° (W) 6,203 11.9 -31.5°
Maximum altitude 20:10:27 30° 331° (NNW) 4,618 10.5 -35.6°
Enters shadow 20:21:57 16° 18° (NNE) 5,023 10.4 -38.4°
